Regional Weather Roundup
Issued by NWS Newport/Morehead, NC

Current Version | Previous Version | Text Only | Print | Product List | Glossary On
Versions: 1 2 3 4 5 6 7 8 9 10 11 12 13 14 15 16 17 18 19 20 21 22 23 24 25 26 27 28 29 30 31 32 33 34 35 36 37 38 39 40 41 42 43 44 45 46 47 48 49 50
000
ASUS42 KMHX 192222
RWRMHX
WEATHER ROUNDUP FOR EASTERN NORTH CAROLINA
NATIONAL WEATHER SERVICE NEWPORT/MOREHEAD CITY NC
600 PM EDT TUE AUG 19 2014

NOTE: "FAIR" INDICATES FEW OR NO CLOUDS BELOW 12,000 FEET
WITH NO SIGNIFICANT WEATHER AND/OR OBSTRUCTIONS TO VISIBILITY

NCZ015>017-031-032-045>047-102-103-192300-
NORTH COAST

CITY           SKY/WX    TMP DP  RH WIND       PRES   REMARKS
EDENTON        MOSUNNY   83  72  71 NW3       29.81S
ELIZABETH CITY CLOUDY    80  74  81 W8        29.81R
KITTY HAWK     CLOUDY    80  73  80 CALM      29.80R
MANTEO         PTSUNNY   81  72  74 NW5       29.81R

$$

NCZ045>047-081-094-103-104-192300-
CENTRAL COAST

CITY           SKY/WX    TMP DP  RH WIND       PRES   REMARKS
FRISCO         MOSUNNY   84  72  67 W9G18     29.81R
SWANQUARTER      N/A     84 N/A N/A W9        29.77F

$$

NCZ095-097-098-100-101-192300-
SOUTHERN COAST

CITY           SKY/WX    TMP DP  RH WIND       PRES   REMARKS
BEAUFORT       PTSUNNY   85  78  80 SW13      29.81S
CEDAR ISLAND     N/A     86 N/A N/A W6        29.85S
JACKSONVILLE   MOSUNNY   89  69  51 NW6       29.80S
NEWPORT        NOT AVBL
PINEY ISLAND   CLEAR     89  73  59 W10       29.81R
WILMINGTON     PTSUNNY   86  74  67 SE7       29.80S


$$

NCZ011>013-027>030-043-044-078>080-089-090>093-098-192300-
COASTAL PLAIN

CITY           SKY/WX    TMP DP  RH WIND       PRES   REMARKS
AHOSKIE        PTSUNNY   81  72  73 N3        29.82S
CLINTON        PTSUNNY   83  75  77 SW5       29.83R
ELIZABETHTOWN  LGT RAIN  76  76  98 CALM      29.85R
GOLDSBORO      MOSUNNY   85  76  73 N6        29.80S
GREENVILLE     MOSUNNY   86  73  66 N3        29.84F
HAVELOCK       MOSUNNY   87  73  62 N6        29.82R
KENANSVILLE    SUNNY     85  71  61 CALM      29.82R
KINSTON        SUNNY     86  72  62 N6        29.82S
NEW BERN       SUNNY     89  71  55 NW6       29.82R
RICHLANDS      MOSUNNY   86  72  62 CALM      29.81S
ROANOKE RAPIDS NOT AVBL
ROCKY MOUNT    SUNNY     85  71  63 CALM      29.82S
WASHINGTON     SUNNY     84  72  67 NW5       29.82S
WHITEVILLE     PTSUNNY   79  72  79 CALM      29.82S

$$

AMZ130-135-150-152-154-156-158-170-250-252-270-ANZ085-086-088-633-658-670-192300-
MARINE OBSERVATIONS

STATION/POSITION TIME  TEMP    WIND        PRES    WAVE   SWELL
                       AIR SEA DIR/SP/G            HT/PER HT/PER
                 (UTC) (F)     (DEG/KT/KT) (MB)    (FT/S) (FT/S)
CHESAPEAKE LIGHT 2200   76      40/ 12/ 13 1010.2
BUOY 44014       2200   78 79  320/  4/  4 1008.9    2/ 6   2/ 6
DUCK             2200   79 78   10/  3/  3 1008.5
2E DUCK          2200                        N/A     1/13
OREGON INLET     2200   81 82  320/  7/ 10 1009.1
BUOY 44095       2200      81                N/A     2/ 6
20E OREGON INLET NOT AVBL
HATTERAS CG      2200   83 83  270/  9/ 11 1009.7
DIAMOND BUOY     2200   80     240/ 10/ 12 1009.2    4/ 6   3/ 6
CAPE LOOKOUT     2200   83     240/ 12/ 16 1009.6
BEAUFORT LAB     2200   84 82  230/  6/ 13 1009.2
30 SE NEW RIVER  2200   82 82  230/ 16/ 19 1009.2    5/ 7   2/13
5 SE WRIGHTSVILL 2200   81 82  240/  4/  6   N/A
BUOY 41002       2122   82 81  250/ 14/ 17 1013.2    5/ 8   3/ 8
BUOY 41004       2200   82 83  250/ 21/ 25 1010.1    5/ 6   2/ 8

$$


USA.gov is the U.S. government's official web portal to all federal, state and local government web resources and services.